IRIDIUM 33 DEB, 38241

Orbit data source: Space-Track

IRIDIUM 33 DEB, 38241 is space debris in LEO originally from a launch on Sun, 14 Sep 1997 UTC launched from the Tyuratam Missile And Space Complex (TTMTR). The debris from Iridium 33, an American commercial communications satellite, has been tracked extensively since its accidental collision with the defunct Russian satellite Cosmos 2251 in 2009. This event, occurring at high speed in low Earth orbit (LEO), generated thousands of pieces of space debris, significantly increasing the risk of further collisions. The Iridium 33 debris cloud has impacted space traffic management and orbital debris mitigation strategies, making it a subject of ongoing study in space situational awareness.

Loading next visibility...
Identifier
38241, 1997-051ZR
Orbit
LEO
Country
Flag of USUS
Related business
Manufacturer
Unknown
Mission
Spacecraft
Bus & Motor
Unknown
Mass
Unknown
Launch date (UTC)
1997-09-14 (28 years ago)
Launch vehicle
Unknown
Launch site
Tyuratam Missile And Space Complex (TTMTR)
Object type
Payload
Rocket body
Debris
Shape & HBR
Unknown shape, 0.1 m
Radar Cross Section
Small (<0.1 m²)

Expand to show TLE details & history
Last TLE update: 3 days ago

TLE from 3 days ago
0 IRIDIUM 33 DEB
1 38241U 97051ZR  25347.25970169  .00005385  00000-0  12492-2 0  9991
2 38241  86.3232 350.3699 0005633  72.2147 287.9674 14.54873749602080
Epoch: 2025-12-13T06:13Z
TLE epoch observation values (Epoch: 2025-12-13T06:13:58.226Z)
Latitude
-0.00004°
Longitude
174.68776°
Altitude
711.624 km
Speed
7.5 km/s
True Right ascension
23h 21m 28s
True Declination
0° 00' 00"
Sunlit
Object was in daylight at epoch
Visualization orbit readout
Latitude
Unknown
Longitude
Unknown
Altitude
Unknown
Speed
Unknown
Apparent Right ascension
Unknown
Apparent Declination
Unknown
Sunlit
N/A
Visualization observer readout
Local Sidereal Time
23:41:07
Azimuth
Unknown
Elevation
Unknown
Doppler factor
Unknown
Orbital elements
Apogee altitude
710.703 km
Perigee altitude
702.721 km
Semi-major axis
7,084.849 km
Eccentricity
0.00056
Inclination
86.3232°
RAAN
350.3699°
Arg. of periapsis
72.2147°
True anomaly
287.90599°
Mean anomaly
287.9674°
Eccentric anomaly
287.93669°
Mean motion
3.63955 °/min
Orbital period
98.91 mins
BSTAR
0.0012492
Loading maneuver chart data...
Computing Atmospheric mass density...

Documentation

Showing up to 5 results
|